Regional Weather Roundup
Issued by NWS

Home | Current Version | Previous Version | Text Only | Print | Product List | Glossary On
Versions: 1 2 3 4 5 6 7 8 9 10 11 12 13 14 15 16 17 18 19 20 21 22 23 24 25 26 27 28 29 30 31 32 33 34 35 36 37 38 39 40 41 42 43 44 45 46 47 48 49 50
000
ASUS45 KABQ 191810
RWRNM
NEW MEXICO REGIONAL WEATHER ROUNDUP
NATIONAL WEATHER SERVICE ALBUQUERQUE NM
1100 AM MST SUN NOV 19 2017

NOTE: "FAIR" MEANS FEW OR NO CLOUDS BELOW 12,000 FEET AGL WITH NO
       SIGNIFICANT WEATHER OR OBSTRUCTIONS TO VISION.

      THIS PRODUCT IS RELEASED AS TWO VERSIONS.  ONE VERSION NEAR
      THE TOP OF THE HOUR CONTAINING PRELIMINARY DATA FROM ALBUQUERQUE
      AND OTHER STATIONS.  A FINAL VERSION WITH ADDITIONAL DATA IS
      ISSUED ABOUT 10 MINUTES AFTER THE HOUR.

NMZ501-503-504-510>518-191900-
NORTHWEST PLATEAU/NORTHCENTRAL MOUNTAINS

CITY           SKY/WX    TMP DP  RH WIND       PRES   REMARKS
FARMINGTON     FAIR      35  15  44 SE3       30.33F
6HR MIN TEMP:  12; 6HR MAX TEMP:  36;

LOS ALAMOS     FAIR      39  11  32 E5        30.31F
SANTA FE       FAIR      44  13  28 N16       30.29F
6HR MIN TEMP:  21; 6HR MAX TEMP:  44;

TAOS           FAIR      41  11  29 NE3       30.34F
ANGEL FIRE     FAIR      44   6  20 W8        30.30F

$$
NMZ402-403-502-505>509-191900-
WESTCENTRAL MOUNTAINS/SOUTHWEST MOUNTAINS

CITY           SKY/WX    TMP DP  RH WIND       PRES   REMARKS
GALLUP         FAIR      39  12  33 CALM      30.32F
6HR MIN TEMP:   6; 6HR MAX TEMP:  39;

GRANTS         FAIR      38   2  21 CALM      30.33F
SILVER CITY    FAIR      53  12  19 SE9       30.28F

$$
NMZ407-409-411-412-191900-
SOUTHERN DESERTS

CITY           SKY/WX    TMP DP  RH WIND       PRES   REMARKS
DEMING         FAIR      54  16  22 E10       30.28F
6HR MIN TEMP:  33; 6HR MAX TEMP:  54;

LAS CRUCES     FAIR      53  14  21 E6        30.30F
HOLLOMAN AFB   FAIR      55  18  23 CALM      30.34F
ALAMOGORDO     FAIR      50  16  25 W5        30.33F
T OR C         FAIR      51   6  16 VRB5      30.30F
6HR MIN TEMP:  32; 6HR MAX TEMP:  51;


$$
NMZ519>523-191900-
CENTRAL VALLEYS/CENTRAL HIGHLANDS

CITY           SKY/WX    TMP DP  RH WIND       PRES   REMARKS
ALBUQUERQUE    PTSUNNY   42  10  27 CALM      30.32F
6HR MIN TEMP:  29; 6HR MAX TEMP:  43;

DOUBLE EAGLE   PTSUNNY   45  10  24 VRB3      30.32F
MORIARTY ARPT  FAIR      47  13  24 CALM      30.29F
6HR MIN TEMP:   8; 6HR MAX TEMP:  48;

CLINES CORNERS FAIR      48   9  20 NW15      30.28F
6HR MIN TEMP:  21; 6HR MAX TEMP:  48;

BELEN          FAIR      42   7  23 CALM      30.33F
6HR MIN TEMP:  18; 6HR MAX TEMP:  43;

SOCORRO        FAIR      45   3  17 N7        30.32F
6HR MIN TEMP:  25; 6HR MAX TEMP:  45;


$$
NMZ524>526-539-540-191900-
SOUTHCENTRAL MOUNTAINS

CITY           SKY/WX    TMP DP  RH WIND       PRES   REMARKS
RUIDOSO        FAIR      46   9  21 NE6       30.32F

$$
NMZ527>531-191900-
NORTHEAST HIGHLANDS/NORTHEAST PLAINS

CITY           SKY/WX    TMP DP  RH WIND       PRES   REMARKS
LAS VEGAS      FAIR      54   2  12 VRB5      30.23F
6HR MIN TEMP:  19; 6HR MAX TEMP:  54;

RATON          FAIR      49  10  20 SW5       30.21F
6HR MIN TEMP:  13; 6HR MAX TEMP:  50;

CLAYTON        FAIR      55  12  18 SW10G20   30.18F
6HR MIN TEMP:  28; 6HR MAX TEMP:  56;


$$
NMZ532>537-191900-
EASTCENTRAL PLAINS

CITY           SKY/WX    TMP DP  RH WIND       PRES   REMARKS
SANTA ROSA     FAIR      53  15  22 S9        30.23F
TUCUMCARI      FAIR      56  15  20 SW17G26   30.22F
6HR MIN TEMP:  23; 6HR MAX TEMP:  56;

CANNON AFB     FAIR      53  16  23 SW16      30.29F
6HR MIN TEMP:  28; 6HR MAX TEMP:  53;

CLOVIS AIRPORT FAIR      53  16  23 SW17      30.29F

$$
NMZ028-029-538-191900-
SOUTHEAST PLAINS

CITY           SKY/WX    TMP DP  RH WIND       PRES   REMARKS
ROSWELL        FAIR      52  18  26 S18       30.31F
6HR MIN TEMP:  24; 6HR MAX TEMP:  53;

ARTESIA        FAIR      52  19  28 S15G22    30.32F
CARLSBAD       FAIR      53  22  29 S16       30.32F
6HR MIN TEMP:  28; 6HR MAX TEMP:  53;

HOBBS          SUNNY     52  18  25 S7G16     30.33F


$$




USA.gov is the U.S. government's official web portal to all federal, state and local government web resources and services.